Seldovia, AK

9:09 AM AKDT on October 19, 2017 (GMT -0800)
Seldovia

Weather History for PASO - October, 2012

Change the Weather History Date:

Wednesday, October 10, 2012

  Actual Average (PAHO) Record (PAHO)
Temperature  
Mean Temperature 42 °F -  
Max Temperature 50 °F 46 °F 57 °F (1936)
Min Temperature 37 °F 33 °F 18 °F (1961)
Degree Days  
Heating Degree Days 22    
Moisture  
Dew Point 40 °F    
Average Humidity 91    
Maximum Humidity 96    
Minimum Humidity 80    
Precipitation  
Precipitation 0.01 in - - ()
Sea Level Pressure  
Sea Level Pressure 29.99 in    
Wind  
Wind Speed 0 mph (NE)    
Max Wind Speed 5 mph    
Max Gust Speed -    
Visibility 4 miles    
Events Fog    
Averages and records for this station are not official NWS values.
T = Trace of Precipitation, MM = Missing Value Source: NWS Daily Summary

Daily Weather History Graph

Daily Weather History Graph

Search for Another Location

Airport or City:

Trip Planner

Search our weather history database for the weather conditions in past years. The results will help you decide how hot, cold, wet, or windy it might be!

Date:

Astronomy

Oct. 10, 2012 Rise Set
Actual Time 8:34 AM AKDT 7:11 PM AKDT
Civil Twilight 7:53 AM AKDT 7:52 PM AKDT
Nautical Twilight 7:06 AM AKDT 8:39 PM AKDT
Astronomical Twilight 6:17 AM AKDT 9:27 PM AKDT
Moon 2:12 AM AKDT (10/10) 5:18 PM AKDT (10/10)
Length of Visible Light 11h 58m
Length of Day
10h 36m
Waning Crescent, 26% of the Moon is Illuminated
Oct 10
Waning Crescent
Oct 15
New
Oct 21
First Quarter
Oct 29
Full
Nov 6
Last Quarter

Hourly Weather History & Observations

Time (AKDT) Temp. Windchill Dew Point Humidity Pressure Visibility Wind Dir Wind Speed Gust Speed Precip Events Conditions
12:51 AM 44.6 °F - 42.8 °F 93% 30.08 in 10.0 mi Calm Calm - N/A   Overcast
12:53 AM 45.0 °F - 42.1 °F 90% 30.08 in 10.0 mi Calm Calm - N/A   Overcast
1:53 AM 44.1 °F 42.5 °F 42.1 °F 93% 30.08 in 7.0 mi ESE 3.5 mph - N/A   Overcast
2:23 AM 42.8 °F - 41.0 °F 93% 30.06 in 2.5 mi Calm Calm - N/A   Overcast
2:36 AM 42.8 °F - 41.0 °F 93% 30.06 in 4.0 mi Calm Calm - N/A   Overcast
2:53 AM 43.0 °F - 41.0 °F 93% 30.06 in 6.0 mi Calm Calm - N/A   Overcast
3:36 AM 44.6 °F - 41.0 °F 87% 30.05 in 2.5 mi Calm Calm - N/A   Overcast
3:46 AM 42.8 °F - 41.0 °F 93% 30.05 in 3.0 mi Calm Calm - N/A   Overcast
3:53 AM 43.0 °F - 41.0 °F 93% 30.05 in 3.0 mi Calm Calm - N/A   Overcast
5:53 AM 43.0 °F - 39.9 °F 89% 30.03 in 7.0 mi Calm Calm - N/A   Overcast
6:21 AM 42.8 °F - 39.2 °F 87% 30.02 in 2.0 mi Calm Calm - N/A   Overcast
6:37 AM 42.8 °F - 39.2 °F 87% 30.02 in 1.0 mi Calm Calm - N/A   Overcast
6:53 AM 42.1 °F - 39.9 °F 92% 30.03 in 2.5 mi Calm Calm - N/A   Overcast
7:03 AM 42.8 °F - 39.2 °F 87% 30.02 in 3.0 mi Calm Calm - N/A   Overcast
7:21 AM 42.8 °F - 39.2 °F 87% 30.02 in 1.8 mi Calm Calm - N/A   Overcast
7:53 AM 42.1 °F 40.2 °F 39.9 °F 92% 30.02 in 2.5 mi South 3.5 mph - N/A   Overcast
8:18 AM 41.0 °F - 39.2 °F 93% 30.01 in 4.0 mi Calm Calm - 0.01 in   Overcast
8:34 AM 41.0 °F - 39.2 °F 93% 30.01 in 1.8 mi Calm Calm - 0.01 in   Overcast
8:53 AM 39.9 °F - 37.9 °F 93% 30.01 in 1.0 mi Calm Calm - 0.01 in   Mist
9:00 AM 39.2 °F - 37.4 °F 93% 30.01 in 0.5 mi Calm Calm - N/A Fog Fog
9:17 AM 39.2 °F - 37.4 °F 93% 30.01 in 0.2 mi Calm Calm - N/A Fog Fog
9:53 AM 41.0 °F - 39.0 °F 93% 30.02 in 0.2 mi Calm Calm - N/A Fog Fog
10:33 AM 41.0 °F - 39.2 °F 93% 30.02 in 0.5 mi Calm Calm - N/A Fog Fog
10:53 AM 42.1 °F - 39.9 °F 92% 30.01 in 0.2 mi Calm Calm - N/A Fog Fog
11:03 AM 42.8 °F - 39.2 °F 87% 30.01 in 0.5 mi Calm Calm - N/A Fog Fog
11:24 AM 42.8 °F - 39.2 °F 87% 30.01 in 3.0 mi Calm Calm - N/A   Overcast
11:50 AM 42.8 °F - 39.2 °F 87% 30.00 in 10.0 mi Calm Calm - N/A   Overcast
11:53 AM 43.0 °F - 39.9 °F 89% 30.00 in 10.0 mi Calm Calm - N/A   Overcast
12:53 PM 45.0 °F - 41.0 °F 86% 30.00 in 10.0 mi Calm Calm - N/A   Overcast
1:53 PM 46.0 °F - 42.1 °F 86% 29.99 in 8.0 mi Calm Calm - N/A   Overcast
2:31 PM 48.2 °F - 42.8 °F 82% 29.98 in 10.0 mi Calm Calm - N/A   Partly Cloudy
2:53 PM 48.0 °F - 42.1 °F 80% 29.98 in 10.0 mi NNE 3.5 mph - N/A   Scattered Clouds
3:32 PM 46.4 °F - 42.8 °F 87% 29.98 in 10.0 mi Calm Calm - N/A   Mostly Cloudy
3:53 PM 46.9 °F - 42.1 °F 83% 29.97 in 10.0 mi NNE 3.5 mph - N/A   Overcast
4:11 PM 46.4 °F 45.2 °F 42.8 °F 87% 29.97 in 10.0 mi NE 3.5 mph - N/A   Overcast
4:49 PM 44.6 °F 42.2 °F 42.8 °F 93% 29.95 in 1.8 mi NNE 4.6 mph - N/A   Overcast
4:53 PM 45.0 °F - 42.1 °F 90% 29.96 in 1.5 mi Calm Calm - N/A   Overcast
5:04 PM 44.6 °F - 42.8 °F 93% 29.95 in 1.8 mi Calm Calm - N/A   Overcast
5:15 PM 44.6 °F - 42.8 °F 93% 29.95 in 3.0 mi Calm Calm - N/A   Overcast
5:32 PM 44.6 °F - 42.8 °F 93% 29.95 in 1.8 mi Calm Calm - N/A   Overcast
5:42 PM 44.6 °F - 42.8 °F 93% 29.95 in 0.5 mi Calm Calm - N/A Fog Fog
5:53 PM 44.1 °F - 41.0 °F 89% 29.95 in 0.2 mi Calm Calm - N/A Fog Fog
6:43 PM 44.6 °F - 42.8 °F 93% 29.94 in 0.5 mi Calm Calm - N/A Fog Fog
6:53 PM 43.0 °F - 41.0 °F 93% 29.95 in 0.2 mi Calm Calm - N/A Fog Fog
7:22 PM 42.8 °F - 41.0 °F 93% 29.94 in 0.8 mi Calm Calm - N/A   Mist
7:53 PM 42.1 °F - 41.0 °F 96% 29.94 in 0.5 mi Calm Calm - N/A Fog Fog
8:11 PM 42.8 °F - 39.2 °F 87% 29.93 in 0.2 mi Calm Calm - N/A Fog Fog
8:22 PM 42.8 °F - 39.2 °F 87% 29.93 in 0.5 mi Calm Calm - N/A Fog Fog
8:53 PM 41.0 °F - 39.0 °F 93% 29.93 in 0.5 mi Calm Calm - N/A Fog Fog
9:18 PM 41.0 °F - 39.2 °F 93% 29.93 in 0.2 mi Calm Calm - N/A Fog Fog
9:46 PM 39.2 °F - 37.4 °F 93% 29.93 in 0.5 mi Calm Calm - N/A Fog Fog
9:53 PM 39.9 °F - 37.9 °F 93% 29.93 in 0.5 mi Calm Calm - N/A Fog Fog
10:07 PM 39.2 °F - 37.4 °F 93% 29.93 in 0.2 mi Calm Calm - N/A Fog Fog
10:35 PM 39.2 °F - 37.4 °F 93% 29.92 in 0.2 mi Calm Calm - N/A Fog Fog
10:53 PM 39.0 °F - 37.0 °F 93% 29.92 in 0.5 mi Calm Calm - N/A Fog Fog
11:03 PM 39.2 °F - 37.4 °F 93% 29.92 in 2.0 mi Calm Calm - N/A   Overcast
11:29 PM 37.4 °F - 35.6 °F 93% 29.91 in 10.0 mi Calm Calm - N/A   Scattered Clouds
11:53 PM 37.9 °F - 36.0 °F 93% 29.91 in 10.0 mi Calm Calm - N/A   Clear